GFSGL_500_spd_057.txt.gz
Wind_Speed
26 24 22 20 18 14 14 13 11 9 10 12 13 13 12 11 12 10 10 10 10 8 7 5 5 4 5 7 8 10 11 13 14 16 17 17 19 20 22 24 25 26 29
25 25 25 23 19 16 16 13 9 10 11 13 14 14 14 13 12 11 10 10 9 6 6 6 4 5 5 7 9 10 11 11 11 11 12 15 18 21 24 27 31 35 35
25 27 26 23 20 20 18 13 9 8 6 6 6 7 8 8 9 8 6 6 6 2 1 2 4 3 6 9 10 10 10 12 13 14 17 18 20 25 29 31 34 39 40
25 27 26 25 24 24 20 14 11 10 9 8 8 5 7 8 8 6 5 5 5 6 4 3 6 5 3 5 7 9 13 17 17 16 16 19 22 23 27 31 35 40 40
23 25 26 28 29 26 20 18 16 13 12 13 11 8 10 10 9 8 8 8 8 7 6 5 4 3 5 4 5 8 12 13 16 18 18 22 25 28 34 38 39 39 38
25 25 28 30 27 23 24 22 17 14 12 12 13 12 14 13 13 14 8 9 9 9 8 5 4 3 5 10 11 12 16 17 20 21 21 25 29 33 38 42 45 49 50
28 29 28 26 26 25 24 20 17 16 14 12 10 12 16 16 16 15 9 6 7 8 8 7 6 7 7 11 14 15 18 21 22 26 26 31 34 39 43 45 48 47 51
29 29 28 27 25 24 20 18 19 17 15 13 10 11 16 17 18 17 14 12 10 8 9 9 10 11 12 16 17 19 21 24 28 32 35 35 39 42 47 50 52 53 53
32 30 27 26 25 22 20 19 21 19 17 14 15 13 12 19 21 20 18 16 15 15 13 12 13 16 19 22 24 25 25 26 31 33 36 40 43 47 51 54 51 54 56
33 30 30 28 27 25 25 24 25 23 20 19 16 15 15 15 18 22 24 22 19 19 19 18 18 20 22 25 25 25 24 27 31 31 35 37 43 46 51 54 57 58 59
35 38 37 34 31 30 31 29 28 26 24 20 17 17 14 12 14 19 24 25 25 22 21 21 22 23 24 27 29 28 29 32 35 36 36 36 40 43 43 52 58 59 57
28 38 38 37 35 34 33 31 31 29 26 24 24 23 21 19 18 18 22 25 26 23 24 25 26 28 30 33 34 34 34 37 39 41 42 42 44 47 46 52 52 47 50
30 33 40 33 32 35 35 36 36 34 31 29 27 26 27 28 27 28 27 25 26 27 29 29 31 33 36 38 39 39 37 40 42 44 46 46 49 55 50 49 45 47 47
37 39 38 39 40 43 44 44 43 40 39 39 37 36 35 34 34 36 35 34 32 31 31 33 34 37 40 41 41 42 40 43 46 48 49 50 53 57 50 48 44 44 50
39 42 47 47 43 41 43 46 47 49 48 48 47 47 45 42 42 41 39 38 37 37 37 36 37 41 42 43 43 44 46 47 48 50 49 52 53 55 53 44 42 41 46
42 43 48 50 49 49 51 52 55 55 53 53 53 52 51 47 43 42 42 41 41 40 39 41 43 44 43 44 45 47 49 49 50 52 50 54 54 51 48 48 40 40 39
31 33 34 39 44 49 53 56 57 56 55 53 50 45 42 41 42 42 41 40 40 41 41 44 44 45 46 47 49 49 50 51 52 52 53 55 55 52 44 42 41 37 32
38 37 36 37 38 38 43 49 49 45 42 39 38 38 38 40 41 42 42 42 42 42 43 44 44 46 47 49 50 50 51 53 52 54 54 58 54 55 52 43 39 36 33
43 40 38 38 37 36 38 41 45 46 45 43 42 43 43 43 44 46 46 46 45 45 45 46 46 48 50 51 50 51 53 54 54 56 57 58 56 54 50 40 35 35 34
50 47 44 42 43 41 40 40 42 44 45 46 47 46 46 46 47 48 48 48 47 47 48 49 51 52 51 51 52 54 55 57 58 59 60 60 56 52 45 40 35 35 34
58 56 55 51 49 48 45 43 44 45 47 48 49 49 49 50 51 52 52 51 51 52 53 54 54 52 52 54 54 57 59 60 60 62 62 59 58 53 46 42 37 38 37
59 59 58 57 56 54 53 51 51 51 52 53 53 54 54 54 55 55 54 55 56 56 56 55 55 54 56 57 57 59 62 60 61 63 61 61 57 52 47 43 40 40 39
61 59 58 57 56 55 55 56 57 57 57 57 57 56 57 58 59 58 59 59 59 60 60 60 59 58 59 59 61 62 63 63 66 64 62 61 56 48 45 45 43 40 38
61 59 60 61 60 58 58 60 61 62 62 64 64 63 64 65 66 66 66 65 64 63 64 64 63 62 62 63 63 63 66 67 68 66 66 59 56 48 44 45 44 43 43
59 57 60 61 63 64 63 63 63 64 65 65 67 68 68 67 68 68 68 70 69 68 69 70 68 64 63 65 67 66 67 70 66 62 58 57 55 50 47 47 44 43 43
70 70 70 72 73 73 72 71 72 72 73 72 72 72 71 73 72 72 72 72 73 73 71 71 68 65 65 64 68 73 69 65 61 61 60 56 56 52 49 48 48 45 46

GFSGL_500_spd_060.txt.gz
Wind_Speed
34 33 29 27 24 20 19 19 17 15 12 12 11 11 10 10 9 8 6 5 5 6 2 0 1 3 5 8 8 8 8 9 9 10 10 11 13 15 16 20 23 26 29
33 34 32 29 25 21 19 19 17 15 12 11 11 12 12 11 11 9 8 6 6 5 2 2 3 3 6 6 6 6 6 6 7 8 9 11 13 16 19 21 26 30 33
32 33 33 30 26 23 22 20 16 11 10 7 8 10 10 10 10 10 9 7 5 4 4 5 7 10 9 7 5 4 3 6 6 8 11 10 12 14 18 24 28 32 36
30 32 33 30 27 24 23 20 16 14 9 6 6 5 6 8 10 9 9 9 7 9 9 8 9 8 7 6 3 2 5 7 8 10 10 14 19 25 27 29 31 35 38
31 33 33 32 31 29 25 21 18 14 12 10 9 7 8 10 10 10 10 9 11 10 9 9 9 6 2 1 1 1 5 9 11 12 14 14 20 24 30 33 35 38 39
29 30 34 34 34 31 27 24 21 17 14 13 14 13 12 13 12 12 13 11 10 9 9 9 8 8 7 8 6 6 8 11 14 15 16 20 23 27 32 37 40 44 42
32 32 32 33 34 32 29 26 23 19 15 15 16 15 15 16 16 17 15 12 11 10 10 10 10 9 9 9 9 8 10 13 18 20 21 23 27 32 35 41 45 49 49
35 34 33 31 31 30 28 28 24 20 18 18 17 16 17 17 19 20 18 13 9 8 9 13 12 11 11 12 14 17 19 21 24 25 27 27 31 32 36 42 45 49 49
34 33 32 31 30 30 28 27 26 23 21 20 20 18 16 18 20 22 21 17 14 13 12 14 15 13 13 15 16 17 19 20 24 28 29 31 34 37 41 44 47 52 50
31 31 32 32 32 30 30 30 30 28 27 24 22 19 15 16 20 22 24 22 19 19 19 19 21 19 19 20 20 21 23 25 26 27 29 32 33 35 40 46 53 55 54
28 31 34 33 33 35 35 33 30 30 29 27 25 22 19 19 19 21 21 21 22 23 23 23 25 25 24 24 25 25 27 30 30 32 31 32 34 34 37 43 50 57 54
26 31 35 37 37 37 35 31 29 28 27 26 24 20 18 18 19 20 19 20 20 24 22 23 22 25 26 27 28 29 31 34 35 36 36 38 39 34 37 43 47 48 43
22 26 33 38 39 35 32 31 30 27 28 27 26 25 25 27 27 29 28 27 26 25 23 26 27 27 27 28 30 32 35 36 37 39 40 40 42 39 39 46 49 47 42
27 26 35 37 42 40 39 35 33 31 34 34 32 32 32 33 32 34 34 32 33 32 31 30 29 30 30 31 33 35 37 38 39 41 42 43 43 44 42 48 52 51 43
33 31 33 34 45 45 41 38 38 39 41 42 42 42 42 41 39 41 41 39 39 38 39 35 33 35 37 37 38 40 41 41 42 42 44 46 46 47 47 52 52 51 51
42 41 39 34 42 47 46 47 47 46 47 49 50 49 49 50 50 48 49 50 47 44 41 38 38 40 42 43 43 43 44 44 45 45 45 47 48 49 48 52 52 51 50
38 38 36 38 43 47 51 53 51 49 51 51 52 56 56 55 54 53 51 51 49 43 40 40 39 41 43 44 44 43 45 46 46 45 46 48 50 50 49 51 51 48 47
38 39 40 42 43 47 51 50 48 51 52 54 57 59 59 57 56 55 51 45 43 42 41 41 42 42 42 42 41 42 44 45 45 45 47 49 51 52 51 53 50 46 46
38 38 38 37 37 37 39 45 49 49 52 55 57 58 58 57 53 45 42 41 42 42 42 42 43 44 43 42 42 43 43 44 45 46 47 50 53 52 53 53 50 48 45
43 42 40 39 40 40 39 38 40 40 40 42 44 47 46 43 42 41 42 44 45 45 44 44 44 45 45 45 44 45 45 46 47 48 50 51 54 56 55 53 50 49 45
48 48 44 39 39 41 42 42 42 42 42 42 42 42 43 42 43 44 45 45 45 46 46 47 48 49 49 50 50 50 51 50 50 51 51 52 55 58 57 56 54 51 48
55 53 48 43 43 43 46 48 48 47 47 46 46 45 45 45 45 46 46 47 50 51 53 53 55 56 56 56 55 54 54 53 52 51 52 54 55 57 57 56 56 55 50
57 59 56 54 53 50 50 51 53 53 53 53 52 52 51 51 51 51 51 52 53 55 55 56 57 58 58 59 58 58 58 58 56 55 57 56 57 60 59 56 56 54 51
64 64 65 63 60 55 51 54 55 55 56 54 53 54 54 55 55 55 56 58 59 59 60 60 61 62 62 61 61 62 62 63 62 63 61 62 62 58 58 59 61 57 50
73 72 69 68 62 58 57 57 56 54 56 58 58 58 59 61 62 62 63 62 62 62 63 65 66 66 67 67 68 67 67 66 64 63 61 63 66 63 60 59 58 57 54
79 78 76 70 70 70 63 64 59 55 53 53 56 58 63 65 66 68 69 70 70 71 71 71 72 72 71 70 71 68 69 69 69 64 65 63 60 61 60 61 59 58 56

GFSGL_500_spd_063.txt.gz
Wind_Speed
36 33 32 32 29 24 24 24 23 22 19 16 13 11 9 8 6 5 4 3 0 1 3 6 9 12 13 12 11 9 8 7 6 6 6 7 7 10 12 15 20 24 27
37 34 33 33 30 26 25 24 25 22 20 18 15 14 12 10 9 8 6 5 3 3 2 5 8 11 10 10 10 8 7 6 4 5 5 6 10 13 18 22 26 29 32
37 35 36 34 30 27 26 25 24 23 21 18 16 15 14 14 12 10 9 8 7 7 5 7 9 12 11 8 6 5 6 6 7 9 9 9 13 18 20 23 26 29 33
35 35 34 33 31 30 29 27 26 25 22 19 16 14 14 14 13 12 11 11 11 10 10 11 12 11 7 5 4 5 4 3 3 4 7 11 14 20 22 26 29 32 35
33 34 35 35 34 34 32 28 29 25 22 19 15 12 13 14 14 13 13 12 13 13 13 12 12 11 7 5 6 7 2 5 6 8 8 10 14 18 22 27 29 32 36
34 31 35 37 36 35 34 31 29 26 22 18 15 13 13 14 13 13 13 14 13 13 12 13 12 9 7 7 6 5 6 6 8 8 10 12 16 21 22 26 31 36 35
35 35 36 38 38 37 37 33 30 28 26 20 17 16 16 16 14 14 15 15 13 13 13 12 9 8 7 9 8 6 7 7 8 10 11 15 19 22 24 29 33 37 40
38 35 35 38 38 39 38 33 33 31 28 24 21 19 18 17 16 17 17 17 13 13 12 10 10 10 10 10 8 6 8 10 12 15 16 20 23 26 26 27 32 38 42
38 35 33 34 38 38 37 34 35 35 31 26 24 21 19 19 19 19 18 19 15 13 11 9 8 8 12 13 10 9 11 13 16 18 22 25 29 31 34 34 37 41 42
36 34 35 35 36 36 36 35 37 37 32 28 23 21 20 20 19 17 18 22 18 17 15 14 13 15 17 19 17 16 15 19 21 23 24 28 32 34 37 39 39 43 48
32 35 36 37 37 38 38 38 37 35 31 26 23 22 21 20 17 16 16 18 21 22 21 20 20 21 23 25 23 22 21 24 25 25 26 29 31 36 37 40 41 43 45
29 35 37 38 38 38 38 37 36 35 31 29 27 24 22 21 20 20 19 19 20 20 21 22 23 23 25 26 25 24 25 26 26 26 27 29 32 36 36 39 40 40 42
28 32 37 37 37 38 38 37 35 33 31 28 27 25 24 25 24 22 22 20 21 24 22 21 22 23 26 29 29 27 27 27 28 28 29 32 35 38 40 40 41 42 44
29 27 32 32 32 35 38 37 36 32 30 28 28 28 30 30 30 29 31 31 29 27 26 29 30 30 31 32 32 32 32 33 33 34 35 37 38 41 42 42 42 43 45
33 29 29 33 33 38 39 40 39 38 37 38 37 36 36 36 36 38 36 35 36 34 35 33 32 31 31 33 35 35 35 35 37 38 41 42 41 42 44 42 43 43 44
38 35 34 32 38 39 43 41 42 40 38 41 44 45 42 42 44 44 43 42 43 42 42 41 41 42 37 35 36 37 36 36 39 41 42 42 42 43 43 43 43 44 46
44 41 45 42 41 53 47 48 45 44 47 50 50 47 51 47 46 48 50 49 48 48 48 50 48 44 40 38 37 36 35 36 38 38 38 39 40 42 42 43 43 45 46
49 46 52 52 49 25 39 43 42 47 53 54 56 53 48 45 48 50 50 50 50 49 48 46 44 43 39 37 37 38 38 39 40 39 39 39 40 42 43 42 43 45 49
49 46 47 44 40 40 39 37 40 48 56 57 57 56 53 47 50 52 54 53 52 50 50 48 44 39 37 37 39 40 40 41 41 42 42 42 43 44 44 44 45 46 47
53 50 45 44 42 40 41 42 43 48 46 45 49 54 53 54 53 54 54 52 48 44 41 40 38 38 39 39 40 41 42 43 44 44 45 46 46 45 45 46 46 47 49
45 46 48 45 46 44 41 42 43 40 37 39 40 42 46 45 44 43 43 42 40 38 38 38 40 41 42 41 41 43 46 47 47 47 47 47 48 47 46 47 47 48 51
46 45 44 41 42 43 42 43 41 38 37 36 38 39 42 43 43 42 42 41 40 39 40 42 43 44 45 46 46 47 49 50 51 51 51 51 50 49 48 50 50 50 51
52 51 51 50 49 49 49 49 49 47 42 38 40 40 42 45 47 48 47 46 46 45 45 47 49 49 49 50 51 52 53 54 53 53 54 55 54 53 52 53 53 52 51
63 62 60 59 57 56 57 56 55 56 52 45 41 43 44 45 47 48 50 52 52 53 52 51 52 54 55 54 55 55 55 57 58 59 60 61 59 56 58 54 56 54 53
72 70 68 67 68 66 66 61 61 61 62 55 49 48 47 48 48 49 51 52 54 54 55 55 56 58 58 59 59 60 62 63 64 64 64 64 64 65 64 64 63 57 57
81 77 76 74 74 74 72 68 65 64 64 64 57 53 50 50 52 54 56 54 52 55 58 60 61 64 65 66 66 67 68 69 71 71 70 69 68 62 62 63 60 57 57

GFSGL_500_spd_069.txt.gz
Wind_Speed
37 35 34 34 31 29 27 23 22 21 19 20 18 15 12 11 9 7 6 5 4 7 10 10 11 11 11 10 11 11 9 8 7 6 4 3 2 6 8 10 14 17 22
38 37 35 36 36 32 30 26 23 22 22 22 21 18 15 14 12 11 10 8 7 6 9 11 13 13 13 12 13 12 10 8 7 5 3 3 4 7 10 13 18 22 28
38 39 37 37 37 33 31 29 24 24 24 24 22 21 19 17 15 13 14 13 10 9 10 12 12 13 14 13 13 12 9 8 6 5 3 4 7 9 11 16 20 25 27
37 40 38 37 35 34 33 33 28 26 26 25 24 23 21 18 15 16 16 17 13 11 10 12 12 12 12 13 14 13 9 8 6 2 3 5 8 10 15 19 21 26 28
34 38 36 36 36 35 36 35 32 29 27 27 26 24 22 18 18 19 17 17 14 12 10 11 11 11 12 12 14 14 8 5 1 2 4 6 8 11 13 16 19 19 24
32 35 36 38 38 35 36 36 34 31 29 28 27 25 22 20 20 20 16 15 13 12 12 11 11 12 12 11 10 12 8 5 3 2 5 7 8 10 11 14 17 17 19
31 35 37 37 37 37 36 38 35 32 31 29 29 26 22 20 20 18 14 12 12 14 13 12 11 14 11 11 10 8 7 6 6 5 6 8 10 13 14 15 17 20 23
31 33 37 37 35 37 37 37 35 33 31 30 30 27 24 21 20 19 15 12 11 14 14 15 15 15 12 11 11 11 10 9 9 8 8 10 12 15 17 17 18 20 22
29 30 35 35 32 33 36 36 36 35 33 30 31 29 25 23 22 20 16 14 13 15 18 16 17 19 16 14 13 14 13 12 14 13 12 14 16 18 20 21 23 25 26
26 28 32 35 34 31 33 37 38 38 35 34 33 30 27 25 22 20 19 18 16 16 19 18 19 18 16 15 13 12 12 17 18 18 16 17 18 19 22 24 26 28 31
28 29 32 35 35 33 33 36 37 38 38 36 33 32 30 27 23 19 18 18 18 18 21 19 18 18 17 17 17 16 16 17 18 18 19 21 22 23 25 27 28 29 32
33 28 31 32 34 36 35 33 36 38 38 37 34 34 33 30 25 21 20 19 20 19 22 22 21 20 20 20 21 19 19 21 21 20 21 24 27 28 28 30 33 33 33
35 29 27 30 35 35 36 36 33 35 37 37 36 34 35 32 29 25 23 21 20 17 21 24 24 23 23 23 21 19 20 21 23 23 22 24 27 30 32 33 32 33 32
43 34 31 27 30 34 36 37 34 32 33 36 38 37 36 35 32 28 25 25 23 20 21 22 24 21 19 19 22 24 21 20 23 25 28 29 29 32 34 32 31 32 31
37 37 37 34 29 30 33 35 35 35 33 33 36 37 36 34 32 32 33 32 31 27 26 26 24 23 24 25 27 28 30 31 31 33 35 36 32 34 33 32 31 32 30
43 47 44 38 28 28 32 34 36 36 35 36 36 36 39 39 38 36 37 35 33 33 32 29 28 29 30 31 32 32 34 36 38 37 34 33 34 33 31 31 32 31 30
52 53 53 43 36 33 32 37 38 37 37 37 37 38 40 39 40 38 39 37 36 35 35 36 34 35 37 38 39 38 36 37 39 38 35 35 35 32 31 32 32 30 31
62 59 57 49 49 41 38 35 38 38 39 39 41 42 44 44 40 39 40 38 37 40 39 40 42 43 43 42 40 41 41 43 40 36 35 35 34 32 31 31 32 32 32
61 61 58 56 52 46 40 38 37 38 39 40 42 45 48 48 46 47 47 46 45 45 44 44 45 47 44 45 42 43 44 37 39 39 36 33 34 33 32 33 34 35 35
64 60 63 67 59 55 49 42 38 41 43 45 48 51 52 56 56 47 50 50 43 45 47 46 47 50 49 46 43 43 35 35 35 36 34 34 35 35 34 35 37 38 38
65 67 65 62 60 65 55 43 47 48 50 54 59 59 49 52 61 57 42 57 50 44 43 40 38 41 40 40 39 37 35 35 35 36 36 36 37 38 38 38 40 41 42
61 67 59 64 57 50 47 50 55 61 62 58 53 40 46 47 62 50 52 46 47 48 42 40 40 41 39 38 37 37 37 37 37 37 38 40 41 42 43 45 45 44 45
55 50 46 43 44 43 45 46 42 50 44 56 43 32 34 31 32 37 44 49 50 47 44 46 45 43 41 43 42 41 41 41 43 44 44 45 48 48 47 48 48 49 49
64 47 50 50 46 48 49 48 44 39 37 31 35 32 32 31 36 47 53 53 48 41 43 44 42 45 47 47 46 46 43 46 49 49 49 50 50 51 50 51 52 52 52
57 57 54 56 52 52 51 48 44 41 37 33 37 41 45 46 46 51 53 52 51 50 50 49 47 48 49 49 50 50 50 50 51 53 54 55 55 54 55 52 52 51 51
54 55 63 70 62 58 52 50 49 47 46 47 49 49 48 49 51 52 53 53 53 54 56 58 59 59 57 56 55 55 55 56 57 59 58 60 59 57 57 55 54 52 57

GFSGL_500_spd_072.txt.gz
Wind_Speed
31 31 30 28 29 27 24 22 20 19 17 17 15 14 10 8 6 4 3 2 3 4 4 6 6 8 8 8 7 6 6 6 5 3 3 3 3 5 7 9 12 17 21
29 34 32 31 31 29 26 24 22 21 21 20 18 17 15 12 10 7 5 3 4 5 4 7 8 9 11 11 10 9 8 8 7 6 5 3 3 3 6 9 12 17 20
27 32 35 34 31 29 28 26 25 22 23 23 20 19 19 16 12 10 8 6 5 7 6 8 10 11 11 12 12 10 8 7 7 7 5 3 3 3 4 8 13 17 19
26 28 33 34 31 30 31 30 28 24 24 24 23 22 21 19 16 13 12 10 7 8 9 9 10 11 13 13 13 12 9 8 8 7 5 3 1 2 5 8 11 13 16
23 26 27 33 34 33 31 31 30 28 27 25 26 24 22 20 18 17 15 14 10 10 10 11 11 12 12 12 13 14 11 9 10 7 5 2 3 5 7 9 11 14 18
20 24 29 33 35 33 32 30 32 31 30 28 25 25 24 21 20 19 17 15 12 12 12 13 13 12 14 14 15 15 14 11 9 6 4 5 7 8 10 12 14 15 16
20 24 27 30 34 33 33 32 30 30 32 30 27 26 24 21 22 20 18 13 13 14 13 14 15 15 16 16 16 16 16 14 11 9 9 8 9 12 14 15 16 17 20
23 23 27 27 30 34 34 32 31 29 30 32 28 27 27 23 22 20 17 12 13 14 14 16 18 18 19 19 17 17 18 15 13 10 10 12 13 15 18 18 18 19 20
21 18 23 27 28 31 31 31 32 31 31 31 28 27 26 25 23 22 17 13 14 14 14 16 19 20 21 19 18 18 17 15 15 13 13 14 17 19 20 20 20 22 22
23 18 22 27 28 29 29 30 31 32 31 33 30 28 27 28 26 23 20 16 16 17 15 18 19 21 24 21 18 18 16 16 16 15 16 17 19 19 21 22 24 25 26
28 25 25 26 27 29 30 30 30 32 33 34 31 30 29 29 27 25 22 20 21 19 17 18 22 23 24 23 21 17 16 17 17 17 16 17 19 20 23 25 27 29 29
33 30 28 25 28 29 31 30 28 29 32 33 33 32 31 30 30 28 25 21 24 20 19 20 24 24 23 22 21 21 21 21 20 20 20 19 20 20 24 26 29 30 30
38 34 30 28 25 29 30 30 31 29 28 29 32 33 32 31 31 31 28 26 25 22 20 21 24 25 25 25 24 23 23 21 19 19 17 16 20 21 26 30 33 33 31
40 36 33 30 25 28 30 30 31 32 30 29 29 31 33 35 33 34 32 30 28 24 23 21 23 26 28 25 23 22 21 20 18 18 21 22 27 31 29 32 36 33 32
43 41 37 35 31 26 28 30 32 34 33 31 28 31 35 36 36 36 35 33 33 31 30 28 26 26 26 25 23 22 22 24 24 27 27 30 36 37 36 35 38 35 31
46 43 40 42 37 33 27 27 30 31 34 35 33 32 33 35 36 38 37 36 36 35 33 31 30 28 27 28 27 27 28 29 30 32 34 37 38 38 37 38 40 35 32
52 50 49 44 40 39 32 25 28 31 35 36 36 36 34 34 34 35 35 36 36 37 35 36 36 34 33 32 33 33 33 34 37 40 39 40 41 43 42 42 40 35 32
58 52 50 46 44 39 35 33 32 28 33 39 38 39 39 37 36 39 40 41 41 41 40 40 39 41 42 39 39 40 39 43 44 44 42 40 44 43 45 43 40 34 32
63 57 53 53 52 47 44 40 42 36 37 39 44 44 41 38 39 41 42 44 44 43 42 41 42 43 44 44 43 44 47 49 48 43 42 40 38 40 40 39 37 34 33
65 63 61 60 59 58 54 49 47 50 45 41 44 44 42 43 45 49 49 48 47 43 45 47 49 49 44 45 46 47 50 51 51 48 43 39 35 34 35 34 35 35 35
66 69 67 66 64 63 62 57 56 57 50 42 44 44 47 50 54 56 57 56 59 55 58 63 53 60 44 42 43 49 48 48 48 44 41 35 32 33 34 34 35 37 38
59 65 72 68 65 65 62 60 67 69 54 52 50 52 53 55 57 60 57 63 48 54 47 43 59 35 47 41 40 40 39 38 38 38 39 36 36 38 38 37 38 40 41
56 59 62 64 64 65 65 64 65 66 61 61 48 46 48 58 60 54 57 55 65 45 48 58 37 47 54 44 44 42 41 39 40 42 43 43 41 42 44 45 46 45 46
54 56 59 56 53 59 70 74 68 69 71 70 48 40 34 26 39 68 48 38 31 30 31 27 32 43 46 48 47 45 44 43 44 45 47 48 49 50 51 50 51 50 51
56 56 55 58 67 65 73 69 80 53 53 27 33 32 35 24 34 31 30 32 32 33 34 36 41 47 50 51 50 49 47 47 47 48 49 52 52 53 54 55 56 56 56
52 51 66 56 62 53 54 52 51 49 41 36 41 40 41 37 38 32 33 36 38 39 40 42 45 48 52 53 53 55 55 55 55 56 57 59 60 61 62 62 62 64 64

GFSGL_500_spd_075.txt.gz
Wind_Speed
20 26 26 27 26 24 22 22 22 20 18 18 14 11 8 6 4 3 2 0 0 2 2 4 6 6 8 9 9 8 7 6 4 4 3 2 2 3 4 7 11 17 20
25 25 29 30 30 27 24 23 22 22 21 21 16 13 11 9 7 6 4 3 3 2 2 5 8 9 8 10 10 8 7 6 5 5 3 2 1 2 4 9 10 11 15
21 27 30 32 29 27 28 27 25 23 22 22 19 15 14 12 10 9 7 5 6 6 4 6 9 11 11 11 10 9 7 6 5 5 5 4 2 3 4 4 8 13 15
18 23 27 31 31 30 29 29 28 25 22 20 21 19 17 15 13 11 11 8 8 9 8 8 9 12 14 14 13 11 9 8 8 8 8 7 4 2 4 7 10 13 15
14 15 21 29 34 35 31 29 30 27 25 24 22 22 21 18 16 15 13 11 10 12 12 12 12 13 15 15 16 16 14 11 11 11 10 9 7 4 4 7 10 13 17
18 14 20 25 31 34 34 31 30 29 28 26 24 23 22 21 19 18 15 13 12 13 15 14 14 14 16 17 18 18 18 16 14 13 11 10 8 7 6 9 10 11 12
23 16 15 21 27 31 34 33 30 29 31 29 28 26 23 23 22 20 18 15 13 14 16 17 17 17 17 19 20 20 20 20 17 14 14 11 8 8 9 12 14 14 16
25 18 16 15 21 29 32 32 32 30 30 30 30 29 26 24 23 21 20 16 13 15 16 17 19 20 19 21 22 21 22 22 19 17 15 14 11 12 13 15 17 17 18
25 16 15 16 19 24 29 32 32 32 30 28 30 30 28 25 25 23 21 17 15 16 17 17 19 22 22 24 22 22 22 22 21 19 17 15 14 15 17 17 19 19 20
21 18 18 17 17 20 26 31 33 32 32 32 30 30 30 28 26 25 22 19 17 19 19 16 17 22 24 24 24 25 24 25 21 19 18 16 16 17 18 20 20 22 25
23 24 24 20 17 20 23 30 32 30 31 32 31 31 31 29 28 25 24 22 20 21 20 19 18 21 25 25 28 25 24 23 19 17 16 16 18 19 20 21 22 25 27
30 30 28 23 20 21 23 26 30 30 29 31 32 31 30 29 28 26 26 25 24 23 22 22 22 22 23 26 28 29 27 25 20 19 19 20 19 18 18 20 24 29 32
35 34 33 29 24 24 24 27 28 29 28 28 29 29 29 30 29 28 26 28 27 25 25 23 23 23 24 27 29 31 29 25 23 23 23 22 19 20 21 23 28 33 34
40 38 36 32 27 25 24 28 29 29 28 26 25 27 30 32 32 30 29 29 30 29 27 26 26 26 25 26 29 31 30 28 28 27 25 23 22 22 23 27 31 35 32
43 42 41 38 31 28 27 27 28 30 31 32 31 30 30 31 31 34 35 33 32 33 34 33 29 27 26 27 30 32 31 31 29 27 24 22 25 27 29 32 36 37 37
46 45 47 42 38 33 31 30 28 32 33 34 36 36 33 31 34 36 36 36 37 38 37 34 32 31 30 30 30 31 32 30 29 30 27 29 31 33 35 37 39 40 41
48 49 51 47 42 40 36 34 33 31 32 34 36 37 36 34 33 35 38 40 42 42 38 36 37 37 36 37 35 33 33 33 34 33 35 36 37 37 40 40 43 45 46
54 50 49 46 44 41 42 35 38 35 32 32 33 38 39 39 38 37 39 41 42 44 42 43 43 42 41 40 40 38 38 38 38 41 41 42 42 42 41 43 44 46 46
58 56 52 50 50 49 45 44 38 41 37 37 35 35 38 41 42 44 42 42 44 44 45 45 46 44 43 43 43 43 44 45 45 46 46 46 45 46 48 45 48 47 45
53 58 57 55 54 54 53 49 46 45 44 45 42 43 43 42 43 49 50 49 48 45 45 47 48 48 49 48 47 48 49 51 50 48 46 48 50 51 49 46 46 45 44
53 54 59 61 59 56 56 55 52 52 48 48 52 52 46 49 50 50 48 48 48 48 50 50 51 47 47 50 49 48 47 47 43 33 39 42 45 45 43 43 43 41 40
54 54 57 61 67 66 59 59 57 57 56 54 56 52 50 57 63 49 47 46 48 51 53 56 58 57 51 62 62 64 42 26 26 34 37 36 40 39 41 42 41 41 41
52 53 54 59 64 66 67 67 67 67 64 59 60 62 64 57 50 50 50 50 51 54 55 56 58 61 63 67 64 69 52 46 27 31 33 38 40 38 40 41 41 40 42
52 51 51 53 55 60 66 68 71 71 70 70 59 53 55 53 65 47 49 48 39 57 58 56 59 65 54 61 56 55 63 31 30 35 36 40 42 43 43 43 44 44 44
52 48 47 49 52 52 46 61 65 61 61 63 65 59 63 41 59 67 59 47 40 46 63 66 73 50 38 36 31 30 26 30 33 39 42 45 47 49 50 50 50 50 51
52 48 47 46 47 49 50 52 56 65 75 55 47 58 62 62 61 59 62 61 36 39 36 37 44 35 42 41 36 35 34 36 40 45 49 52 53 54 56 56 57 57 59